Location: Budapest
(47.4979°N, 19.0402°E)
Time: 04:39:04
(UTC+01:00)

Envisat - Pass Details

Date: 14 October 2017
Orbit: 764 x 766 km, 98.2° (Epoch: 12 December)

Event Time Altitude Azimuth Distance (km) Brightness Sun altitude
Exits shadow 19:39:12 32° 100° (E) 1,293 3.6 -17.9°
Maximum altitude 19:40:32 38° 67° (ENE) 1,162 3.5 -18.1°
Drops below altitude 10° 19:45:13 10° 0° (N) 2,317 5.6 -18.9°
Sets 19:47:39 0° 353° (N) 3,248 6.5 -19.3°
